| time (UTC) | temp C | wind direction | speed KPH | gust KPH | rain 1hr cm | rain 24hr cm | rain mn cm | humidity % | barometer mb |
| 20260905194705 | 16 | 300 | 0.0 | 0.0 | 0.00 | 0.05 | 0.05 | 66 | 1019.7 |
| 20260905193705 | 16 | 301 | 0.0 | 0.0 | 0.00 | 0.05 | 0.05 | 68 | 1019.6 |
| 20260905192206 | 16 | 301 | 0.0 | 0.0 | 0.00 | 0.05 | 0.05 | 68 | 1019.5 |
| 20260905191705 | 16 | 301 | 0.0 | 0.0 | 0.00 | 0.05 | 0.05 | 67 | 1019.5 |
| 20260905191206 | 16 | 301 | 0.0 | 0.0 | 0.00 | 0.05 | 0.05 | 66 | 1019.5 |
| 20260905190705 | 16 | 301 | 0.0 | 0.0 | 0.00 | 0.05 | 0.05 | 66 | 1019.4 |
| 20260905190206 | 16 | 301 | 0.0 | 0.0 | 0.00 | 0.05 | 0.05 | 66 | 1019.4 |
| 20260905185705 | 17 | 301 | 0.0 | 0.0 | 0.00 | 0.05 | 0.05 | 66 | 1019.3 |
| 20260905184706 | 17 | 301 | 0.0 | 0.0 | 0.00 | 0.05 | 0.05 | 64 | 1019.2 |
| 20260905183723 | 17 | 301 | 0.0 | 0.0 | 0.00 | 0.05 | 0.05 | 63 | 1019.1 |
| 20260905183205 | 17 | 301 | 0.0 | 0.0 | 0.00 | 0.05 | 0.05 | 62 | 1019.1 |
| 20260905182705 | 17 | 301 | 0.0 | 0.0 | 0.00 | 0.05 | 0.05 | 61 | 1019.0 |
| 20260905181205 | 18 | 301 | 0.0 | 0.0 | 0.00 | 0.05 | 0.05 | 59 | 1018.9 |
| 20260905180705 | 18 | 301 | 0.0 | 0.0 | 0.00 | 0.05 | 0.05 | 59 | 1018.8 |
| 20260905180205 | 18 | 301 | 0.0 | 0.0 | 0.00 | 0.05 | 0.05 | 58 | 1018.7 |
| 20260905175705 | 18 | 301 | 0.0 | 0.0 | 0.00 | 0.05 | 0.05 | 57 | 1018.7 |
| 20260905175205 | 18 | 301 | 0.0 | 11.3 | 0.00 | 0.05 | 0.05 | 56 | 1018.6 |
| 20260905174705 | 18 | 301 | 1.6 | 11.3 | 0.00 | 0.05 | 0.05 | 55 | 1018.6 |
| 20260905174206 | 18 | 301 | 1.6 | 11.3 | 0.00 | 0.05 | 0.05 | 54 | 1018.5 |
| 20260905173706 | 19 | 292 | 0.0 | 3.2 | 0.00 | 0.05 | 0.05 | 54 | 1018.5 |
| 20260905173206 | 19 | 297 | 0.0 | 3.2 | 0.00 | 0.05 | 0.05 | 53 | 1018.4 |
| 20260905172705 | 19 | 297 | 0.0 | 1.6 | 0.00 | 0.05 | 0.05 | 53 | 1018.4 |
| 20260905172205 | 19 | 293 | 0.0 | 4.8 | 0.00 | 0.05 | 0.05 | 52 | 1018.2 |
| 20260905171705 | 19 | 293 | 0.0 | 4.8 | 0.00 | 0.05 | 0.05 | 51 | 1018.1 |
| 20260905171206 | 19 | 293 | 0.0 | 1.6 | 0.00 | 0.05 | 0.05 | 51 | 1018.1 |
| 20260905170706 | 20 | 294 | 0.0 | 4.8 | 0.00 | 0.05 | 0.05 | 50 | 1018.1 |
| 20260905170206 | 20 | 296 | 0.0 | 4.8 | 0.00 | 0.05 | 0.05 | 50 | 1017.9 |
| 20260905165705 | 20 | 283 | 0.0 | 4.8 | 0.00 | 0.05 | 0.05 | 49 | 1017.8 |
| 20260905164705 | 20 | 289 | 3.2 | 14.5 | 0.00 | 0.05 | 0.05 | 48 | 1017.7 |
| 20260905164205 | 20 | 282 | 4.8 | 14.5 | 0.00 | 0.05 | 0.05 | 48 | 1017.6 |
| 20260905163705 | 20 | 300 | 3.2 | 8.0 | 0.00 | 0.05 | 0.05 | 47 | 1017.4 |
| 20260905162706 | 21 | 279 | 3.2 | 12.9 | 0.00 | 0.05 | 0.05 | 48 | 1017.4 |
| 20260905162205 | 21 | 289 | 3.2 | 12.9 | 0.00 | 0.05 | 0.05 | 47 | 1017.2 |
| 20260905161705 | 21 | 297 | 1.6 | 14.5 | 0.00 | 0.05 | 0.05 | 47 | 1017.2 |
| 20260905160705 | 21 | 277 | 4.8 | 19.3 | 0.00 | 0.05 | 0.05 | 47 | 1017.1 |
| 20260905160206 | 21 | 300 | 4.8 | 19.3 | 0.00 | 0.05 | 0.05 | 46 | 1017.1 |
| 20260905155706 | 21 | 288 | 3.2 | 9.7 | 0.00 | 0.05 | 0.05 | 47 | 1017.0 |
| 20260905155205 | 21 | 267 | 1.6 | 9.7 | 0.00 | 0.05 | 0.05 | 48 | 1017.0 |
| 20260905154705 | 21 | 257 | 3.2 | 9.7 | 0.00 | 0.05 | 0.05 | 49 | 1016.9 |
| 20260905154206 | 21 | 294 | 1.6 | 6.4 | 0.00 | 0.05 | 0.05 | 49 | 1016.9 |
| 20260905153705 | 21 | 278 | 0.0 | 6.4 | 0.00 | 0.05 | 0.05 | 50 | 1016.9 |
| 20260905153205 | 21 | 246 | 0.0 | 4.8 | 0.00 | 0.05 | 0.05 | 51 | 1016.8 |
| 20260905152705 | 21 | 249 | 0.0 | 4.8 | 0.00 | 0.05 | 0.05 | 52 | 1016.9 |
| 20260905152206 | 21 | 240 | 0.0 | 3.2 | 0.00 | 0.05 | 0.05 | 51 | 1016.9 |
| 20260905151705 | 21 | 220 | 0.0 | 3.2 | 0.00 | 0.05 | 0.05 | 50 | 1017.0 |
| 20260905151205 | 22 | 250 | 0.0 | 3.2 | 0.00 | 0.05 | 0.05 | 50 | 1017.0 |
| 20260905150705 | 21 | 229 | 0.0 | 12.9 | 0.00 | 0.05 | 0.05 | 51 | 1017.1 |
| 20260905150205 | 21 | 248 | 1.6 | 12.9 | 0.00 | 0.05 | 0.05 | 51 | 1017.0 |
| 20260905145705 | 22 | 288 | 1.6 | 12.9 | 0.00 | 0.05 | 0.05 | 49 | 1017.1 |
| 20260905145205 | 22 | 286 | 1.6 | 19.3 | 0.00 | 0.05 | 0.05 | 49 | 1017.1 |
| 20260905144705 | 22 | 237 | 3.2 | 19.3 | 0.00 | 0.05 | 0.05 | 48 | 1017.0 |
| 20260905144206 | 22 | 286 | 4.8 | 19.3 | 0.00 | 0.05 | 0.05 | 48 | 1017.0 |
| 20260905143705 | 23 | 328 | 3.2 | 16.1 | 0.00 | 0.05 | 0.05 | 48 | 1017.1 |
| 20260905143205 | 23 | 284 | 3.2 | 17.7 | 0.00 | 0.05 | 0.05 | 48 | 1017.2 |
| 20260905142205 | 23 | 243 | 1.6 | 17.7 | 0.00 | 0.05 | 0.05 | 47 | 1017.1 |
| 20260905141706 | 23 | 265 | 1.6 | 16.1 | 0.00 | 0.05 | 0.05 | 47 | 1017.2 |
| 20260905141206 | 23 | 259 | 1.6 | 16.1 | 0.00 | 0.05 | 0.05 | 48 | 1017.2 |
| 20260905140705 | 22 | 240 | 3.2 | 16.1 | 0.00 | 0.05 | 0.05 | 48 | 1017.2 |
| 20260905140205 | 22 | 234 | 3.2 | 19.3 | 0.00 | 0.05 | 0.05 | 48 | 1017.3 |
| 20260905135705 | 22 | 280 | 6.4 | 19.3 | 0.00 | 0.05 | 0.05 | 48 | 1017.1 |
| 20260905135206 | 22 | 313 | 8.0 | 17.7 | 0.00 | 0.05 | 0.05 | 48 | 1017.2 |
| 20260905133725 | 22 | 255 | 3.2 | 16.1 | 0.00 | 0.05 | 0.05 | 48 | 1017.2 |
| 20260905133228 | 22 | 282 | 4.8 | 20.9 | 0.00 | 0.05 | 0.05 | 48 | 1017.3 |
| 20260905132705 | 22 | 263 | 6.4 | 20.9 | 0.00 | 0.05 | 0.05 | 48 | 1017.3 |
| 20260905132205 | 22 | 277 | 8.0 | 20.9 | 0.00 | 0.05 | 0.05 | 48 | 1017.3 |
| 20260905131705 | 22 | 282 | 6.4 | 17.7 | 0.00 | 0.05 | 0.05 | 49 | 1017.3 |
| 20260905131206 | 21 | 243 | 6.4 | 17.7 | 0.00 | 0.05 | 0.05 | 49 | 1017.3 |
| 20260905130705 | 21 | 252 | 3.2 | 16.1 | 0.00 | 0.05 | 0.05 | 49 | 1017.4 |
| 20260905130206 | 21 | 277 | 4.8 | 16.1 | 0.00 | 0.05 | 0.05 | 50 | 1017.3 |
| 20260905125706 | 21 | 275 | 6.4 | 16.1 | 0.00 | 0.05 | 0.05 | 50 | 1017.3 |
| 20260905125205 | 21 | 300 | 6.4 | 19.3 | 0.00 | 0.05 | 0.05 | 51 | 1017.3 |
| 20260905124706 | 21 | 314 | 4.8 | 19.3 | 0.00 | 0.05 | 0.05 | 51 | 1017.4 |
| 20260905124206 | 21 | 287 | 6.4 | 19.3 | 0.00 | 0.05 | 0.05 | 51 | 1017.4 |
| 20260905123705 | 21 | 265 | 6.4 | 17.7 | 0.00 | 0.05 | 0.05 | 51 | 1017.4 |
| 20260905123206 | 21 | 260 | 6.4 | 20.9 | 0.00 | 0.05 | 0.05 | 51 | 1017.4 |
| 20260905122706 | 21 | 311 | 8.0 | 24.1 | 0.00 | 0.05 | 0.05 | 51 | 1017.5 |
| 20260905122205 | 21 | 290 | 9.7 | 24.1 | 0.00 | 0.05 | 0.05 | 51 | 1017.5 |
| 20260905121706 | 21 | 278 | 11.3 | 24.1 | 0.00 | 0.05 | 0.05 | 51 | 1017.5 |
| 20260905120705 | 22 | 309 | 4.8 | 22.5 | 0.00 | 0.05 | 0.05 | 50 | 1017.5 |
| 20260905120206 | 22 | 279 | 3.2 | 22.5 | 0.00 | 0.05 | 0.05 | 52 | 1017.4 |
| 20260905115705 | 21 | 281 | 4.8 | 22.5 | 0.00 | 0.05 | 0.05 | 52 | 1017.3 |
| 20260905115205 | 21 | 306 | 4.8 | 11.3 | 0.00 | 0.05 | 0.05 | 54 | 1017.4 |
| 20260905114706 | 21 | 316 | 3.2 | 16.1 | 0.00 | 0.05 | 0.05 | 56 | 1017.4 |
| 20260905114205 | 21 | 306 | 4.8 | 16.1 | 0.00 | 0.05 | 0.05 | 57 | 1017.4 |
| 20260905113719 | 21 | 309 | 3.2 | 16.1 | 0.00 | 0.05 | 0.05 | 58 | 1017.5 |
| 20260905113206 | 21 | 292 | 1.6 | 17.7 | 0.00 | 0.05 | 0.05 | 55 | 1017.6 |
| 20260905112706 | 21 | 246 | 4.8 | 17.7 | 0.00 | 0.05 | 0.05 | 57 | 1017.6 |
| 20260905112205 | 21 | 290 | 6.4 | 17.7 | 0.00 | 0.05 | 0.05 | 57 | 1017.6 |
| 20260905111705 | 21 | 267 | 4.8 | 16.1 | 0.00 | 0.05 | 0.05 | 58 | 1017.8 |
| 20260905111205 | 21 | 287 | 6.4 | 16.1 | 0.00 | 0.05 | 0.05 | 58 | 1017.7 |
| 20260905110705 | 21 | 303 | 6.4 | 16.1 | 0.00 | 0.05 | 0.05 | 58 | 1017.7 |
| 20260905110205 | 21 | 282 | 4.8 | 16.1 | 0.00 | 0.05 | 0.05 | 58 | 1017.7 |
| 20260905105705 | 21 | 304 | 4.8 | 16.1 | 0.00 | 0.05 | 0.05 | 59 | 1017.7 |
| 20260905104705 | 21 | 294 | 6.4 | 16.1 | 0.00 | 0.05 | 0.05 | 60 | 1017.7 |
| 20260905104205 | 21 | 308 | 8.0 | 19.3 | 0.00 | 0.05 | 0.05 | 61 | 1017.6 |
| 20260905103705 | 20 | 313 | 6.4 | 19.3 | 0.00 | 0.05 | 0.05 | 61 | 1017.7 |
| 20260905103205 | 21 | 295 | 4.8 | 19.3 | 0.00 | 0.05 | 0.05 | 61 | 1017.7 |
| 20260905102705 | 21 | 291 | 3.2 | 12.9 | 0.00 | 0.05 | 0.05 | 60 | 1017.7 |
| 20260905102207 | 21 | 298 | 3.2 | 16.1 | 0.00 | 0.05 | 0.05 | 62 | 1017.6 |
| 20260905101705 | 20 | 242 | 1.6 | 16.1 | 0.00 | 0.05 | 0.05 | 62 | 1017.7 |
| 20260905101205 | 20 | 236 | 1.6 | 17.7 | 0.00 | 0.05 | 0.05 | 63 | 1017.7 |
| 20260905100705 | 20 | 263 | 4.8 | 17.7 | 0.00 | 0.05 | 0.05 | 66 | 1017.7 |
| 20260905100206 | 20 | 278 | 4.8 | 17.7 | 0.00 | 0.05 | 0.05 | 66 | 1017.8 |
| 20260905095706 | 19 | 281 | 1.6 | 16.1 | 0.00 | 0.05 | 0.05 | 67 | 1017.9 |
| 20260905095205 | 19 | 243 | 3.2 | 16.1 | 0.00 | 0.05 | 0.05 | 68 | 1017.9 |
| 20260905094706 | 19 | 302 | 4.8 | 20.9 | 0.00 | 0.05 | 0.05 | 68 | 1018.0 |
| 20260905094206 | 19 | 288 | 6.4 | 20.9 | 0.00 | 0.05 | 0.05 | 68 | 1018.0 |
| 20260905093705 | 19 | 271 | 6.4 | 20.9 | 0.00 | 0.05 | 0.05 | 69 | 1018.1 |
| 20260905092705 | 18 | 283 | 3.2 | 14.5 | 0.00 | 0.05 | 0.05 | 71 | 1018.0 |
| 20260905092205 | 18 | 278 | 3.2 | 8.0 | 0.00 | 0.05 | 0.05 | 70 | 1018.2 |
| 20260905091705 | 18 | 249 | 1.6 | 8.0 | 0.00 | 0.05 | 0.05 | 72 | 1018.1 |
| 20260905090206 | 17 | 261 | 1.6 | 8.0 | 0.00 | 0.05 | 0.05 | 73 | 1017.7 |
| 20260905085706 | 17 | 271 | 1.6 | 8.0 | 0.00 | 0.05 | 0.05 | 74 | 1018.0 |
| 20260905085206 | 17 | 302 | 1.6 | 6.4 | 0.00 | 0.05 | 0.05 | 75 | 1018.1 |
| 20260905084706 | 17 | 296 | 1.6 | 6.4 | 0.00 | 0.05 | 0.05 | 76 | 1017.7 |
| 20260905084206 | 16 | 279 | 1.6 | 6.4 | 0.00 | 0.05 | 0.05 | 76 | 1017.5 |
| 20260905083705 | 16 | 260 | 0.0 | 1.6 | 0.00 | 0.05 | 0.05 | 78 | 1017.6 |
| 20260905083205 | 16 | 215 | 0.0 | 1.6 | 0.00 | 0.05 | 0.05 | 77 | 1017.1 |
| 20260905082706 | 16 | 215 | 0.0 | 0.0 | 0.00 | 0.05 | 0.05 | 80 | 1017.3 |
| 20260905082206 | 16 | 253 | 0.0 | 0.0 | 0.00 | 0.05 | 0.05 | 81 | 1017.4 |
| 20260905081705 | 16 | 265 | 0.0 | 0.0 | 0.00 | 0.05 | 0.05 | 82 | 1017.6 |
| 20260905081206 | 16 | 265 | 0.0 | 0.0 | 0.00 | 0.05 | 0.05 | 82 | 1017.7 |
| 20260905080705 | 16 | 265 | 0.0 | 1.6 | 0.00 | 0.05 | 0.05 | 82 | 1017.9 |
| 20260905080205 | 16 | 265 | 0.0 | 3.2 | 0.00 | 0.05 | 0.05 | 82 | 1017.9 |
| 20260905075705 | 16 | 265 | 0.0 | 3.2 | 0.00 | 0.05 | 0.05 | 82 | 1017.8 |
| 20260905074705 | 16 | 273 | 0.0 | 1.6 | 0.00 | 0.05 | 0.05 | 82 | 1018.1 |
| 20260905074206 | 16 | 307 | 0.0 | 1.6 | 0.00 | 0.05 | 0.05 | 82 | 1018.1 |
| 20260905073706 | 16 | 307 | 0.0 | 1.6 | 0.00 | 0.05 | 0.05 | 82 | 1018.2 |
| 20260905073206 | 16 | 284 | 0.0 | 1.6 | 0.03 | 0.05 | 0.05 | 82 | 1018.1 |
| 20260905072705 | 16 | 274 | 0.0 | 1.6 | 0.03 | 0.05 | 0.05 | 82 | 1017.8 |
| 20260905072206 | 16 | 282 | 0.0 | 1.6 | 0.03 | 0.05 | 0.05 | 82 | 1017.3 |
| 20260905071705 | 16 | 158 | 0.0 | 0.0 | 0.03 | 0.05 | 0.05 | 83 | 1017.1 |
| 20260905071206 | 16 | 157 | 0.0 | 0.0 | 0.03 | 0.05 | 0.05 | 83 | 1016.8 |
| 20260905070721 | 16 | 157 | 0.0 | 0.0 | 0.03 | 0.05 | 0.05 | 83 | 1017.0 |
| 20260905070205 | 16 | 133 | 0.0 | 0.0 | 0.05 | 0.05 | 0.05 | 83 | 1016.8 |
| 20260905065205 | 16 | 126 | 0.0 | 0.0 | 0.05 | 0.05 | 0.05 | 82 | 1016.7 |
| 20260905064705 | 16 | 126 | 0.0 | 0.0 | 0.05 | 0.05 | 0.05 | 83 | 1016.9 |
| 20260905064206 | 16 | 126 | 0.0 | 1.6 | 0.05 | 0.05 | 0.05 | 83 | 1016.6 |
| 20260905063705 | 16 | 126 | 0.0 | 1.6 | 0.05 | 0.05 | 0.05 | 82 | 1016.7 |
| 20260905062706 | 16 | 275 | 0.0 | 1.6 | 0.03 | 0.03 | 0.03 | 83 | 1017.0 |
| 20260905062206 | 16 | 299 | 0.0 | 3.2 | 0.03 | 0.03 | 0.03 | 84 | 1017.0 |
| 20260905061705 | 16 | 299 | 0.0 | 3.2 | 0.03 | 0.03 | 0.03 | 84 | 1016.9 |
| 20260905060706 | 16 | 292 | 0.0 | 1.6 | 0.03 | 0.03 | 0.03 | 84 | 1017.2 |
| 20260905060205 | 16 | 315 | 0.0 | 4.8 | 0.00 | 0.00 | 0.00 | 83 | 1016.8 |
| 20260905055705 | 16 | 315 | 0.0 | 4.8 | 0.00 | 0.00 | 0.00 | 82 | 1016.8 |
| 20260905055206 | 16 | 315 | 0.0 | 1.6 | 0.00 | 0.00 | 0.00 | 82 | 1016.7 |
| 20260905054705 | 16 | 321 | 0.0 | 1.6 | 0.00 | 0.00 | 0.00 | 82 | 1016.6 |
| 20260905054206 | 16 | 246 | 0.0 | 1.6 | 0.00 | 0.00 | 0.00 | 81 | 1016.6 |
| 20260905053705 | 17 | 248 | 0.0 | 0.0 | 0.00 | 0.00 | 0.00 | 82 | 1016.2 |
| 20260905053205 | 17 | 256 | 0.0 | 0.0 | 0.00 | 0.00 | 0.00 | 82 | 1016.0 |
| 20260905052726 | 17 | 257 | 0.0 | 1.6 | 0.00 | 0.00 | 0.00 | 81 | 1016.1 |
| 20260905052205 | 17 | 257 | 0.0 | 1.6 | 0.00 | 0.00 | 0.00 | 80 | 1016.2 |
| 20260905051705 | 17 | 257 | 0.0 | 1.6 | 0.00 | 0.00 | 0.00 | 80 | 1016.2 |
| 20260905051205 | 17 | 90 | 0.0 | 0.0 | 0.00 | 0.00 | 0.00 | 79 | 1016.0 |
| 20260905050705 | 17 | 78 | 0.0 | 0.0 | 0.00 | 0.00 | 0.00 | 80 | 1015.6 |
| 20260905050206 | 17 | 78 | 0.0 | 0.0 | 0.00 | 0.00 | 0.00 | 79 | 1015.6 |
| 20260905045706 | 17 | 76 | 0.0 | 0.0 | 0.00 | 0.00 | 0.00 | 76 | 1015.4 |
| 20260905045205 | 17 | 76 | 0.0 | 0.0 | 0.00 | 0.00 | 0.00 | 76 | 1015.4 |
| 20260905044705 | 17 | 64 | 0.0 | 0.0 | 0.00 | 0.00 | 0.00 | 75 | 1015.3 |
| 20260905044206 | 17 | 65 | 0.0 | 0.0 | 0.00 | 0.00 | 0.00 | 75 | 1015.1 |
| 20260905043706 | 17 | 65 | 0.0 | 0.0 | 0.00 | 0.00 | 0.00 | 75 | 1014.9 |
| 20260905043206 | 17 | 65 | 0.0 | 0.0 | 0.00 | 0.00 | 0.00 | 75 | 1014.7 |
| 20260905041706 | 17 | 64 | 0.0 | 0.0 | 0.00 | 0.00 | 0.00 | 73 | 1014.5 |
| 20260905041205 | 17 | 64 | 0.0 | 0.0 | 0.00 | 0.00 | 0.00 | 73 | 1014.6 |
| 20260905040705 | 17 | 64 | 0.0 | 0.0 | 0.00 | 0.00 | 0.00 | 73 | 1014.4 |
| 20260905040230 | 17 | 63 | 0.0 | 8.0 | 0.00 | 0.00 | 0.00 | 73 | 1014.3 |
| 20260905035705 | 17 | 61 | 0.0 | 8.0 | 0.00 | 0.00 | 0.00 | 73 | 1014.0 |
| 20260905035206 | 17 | 61 | 0.0 | 8.0 | 0.00 | 0.00 | 0.00 | 73 | 1013.9 |
| 20260905034705 | 17 | 62 | 1.6 | 6.4 | 0.00 | 0.00 | 0.00 | 73 | 1013.7 |
| 20260905034206 | 17 | 28 | 0.0 | 8.0 | 0.00 | 0.00 | 0.00 | 74 | 1013.8 |
| 20260905033705 | 17 | 46 | 0.0 | 8.0 | 0.00 | 0.00 | 0.00 | 74 | 1013.8 |
| 20260905033205 | 17 | 75 | 0.0 | 8.0 | 0.00 | 0.00 | 0.00 | 74 | 1013.9 |
| 20260905032705 | 17 | 70 | 0.0 | 6.4 | 0.00 | 0.00 | 0.00 | 74 | 1014.1 |
| 20260905032206 | 17 | 69 | 0.0 | 8.0 | 0.00 | 0.00 | 0.00 | 74 | 1014.1 |
| 20260905031706 | 17 | 111 | 0.0 | 8.0 | 0.00 | 0.00 | 0.00 | 74 | 1014.2 |
| 20260905030214 | 17 | 50 | 1.6 | 12.9 | 0.00 | 0.00 | 0.00 | 75 | 1014.2 |
| 20260905025206 | 17 | 72 | 1.6 | 12.9 | 0.00 | 0.00 | 0.00 | 75 | 1014.5 |
| 20260905024706 | 17 | 79 | 1.6 | 8.0 | 0.00 | 0.00 | 0.00 | 76 | 1014.4 |
| 20260905024206 | 18 | 55 | 0.0 | 1.6 | 0.00 | 0.00 | 0.00 | 76 | 1014.4 |
| 20260905023705 | 18 | 42 | 0.0 | 3.2 | 0.00 | 0.00 | 0.00 | 76 | 1014.3 |
| 20260905023205 | 18 | 335 | 0.0 | 11.3 | 0.00 | 0.00 | 0.00 | 75 | 1014.3 |
| 20260905022705 | 18 | 333 | 0.0 | 16.1 | 0.00 | 0.00 | 0.00 | 74 | 1014.4 |
| 20260905021705 | 18 | 49 | 4.8 | 17.7 | 0.00 | 0.00 | 0.00 | 73 | 1014.1 |
| 20260905021206 | 18 | 46 | 6.4 | 17.7 | 0.00 | 0.00 | 0.00 | 73 | 1013.8 |
| 20260905020705 | 18 | 24 | 8.0 | 17.7 | 0.00 | 0.00 | 0.00 | 73 | 1013.9 |
| 20260905015206 | 17 | 57 | 1.6 | 16.1 | 0.00 | 0.00 | 0.00 | 79 | 1013.6 |
| 20260905014206 | 17 | 14 | 0.0 | 3.2 | 0.00 | 0.00 | 0.00 | 82 | 1013.3 |
| 20260905013705 | 17 | 32 | 0.0 | 3.2 | 0.00 | 0.00 | 0.00 | 83 | 1012.9 |
| 20260905013205 | 17 | 195 | 0.0 | 3.2 | 0.00 | 0.00 | 0.00 | 83 | 1012.7 |
| 20260905012705 | 17 | 195 | 0.0 | 3.2 | 0.00 | 0.00 | 0.00 | 83 | 1012.5 |
| 20260905012205 | 17 | 194 | 0.0 | 0.0 | 0.00 | 0.00 | 0.00 | 83 | 1012.4 |
| 20260905011706 | 17 | 304 | 0.0 | 4.8 | 0.00 | 0.00 | 0.00 | 83 | 1012.4 |
| 20260905011205 | 17 | 304 | 0.0 | 4.8 | 0.00 | 0.00 | 0.00 | 83 | 1012.3 |
| 20260905010705 | 17 | 306 | 0.0 | 4.8 | 0.00 | 0.00 | 0.00 | 83 | 1012.2 |
| 20260905010206 | 17 | 325 | 0.0 | 4.8 | 0.00 | 0.00 | 0.00 | 82 | 1012.1 |
| 20260905005705 | 17 | 318 | 0.0 | 3.2 | 0.00 | 0.00 | 0.00 | 82 | 1012.0 |
| 20260905005205 | 17 | 322 | 0.0 | 1.6 | 0.00 | 0.00 | 0.00 | 82 | 1011.9 |
| 20260905004705 | 17 | 259 | 0.0 | 0.0 | 0.00 | 0.00 | 0.00 | 82 | 1011.7 |
| 20260905004205 | 17 | 259 | 0.0 | 0.0 | 0.00 | 0.00 | 0.00 | 82 | 1011.7 |
| 20260905003705 | 17 | 259 | 0.0 | 0.0 | 0.00 | 0.00 | 0.00 | 82 | 1011.6 |
| 20260905003206 | 17 | 234 | 0.0 | 0.0 | 0.00 | 0.00 | 0.00 | 82 | 1011.5 |
| 20260905002706 | 17 | 233 | 0.0 | 0.0 | 0.00 | 0.00 | 0.00 | 82 | 1011.6 |
| 20260905002205 | 17 | 221 | 0.0 | 0.0 | 0.00 | 0.00 | 0.00 | 81 | 1011.5 |
| 20260905001705 | 17 | 221 | 0.0 | 0.0 | 0.00 | 0.00 | 0.00 | 81 | 1011.5 |
| 20260905001206 | 17 | 221 | 0.0 | 0.0 | 0.00 | 0.00 | 0.00 | 81 | 1011.5 |
| 20260905000706 | 17 | 221 | 0.0 | 0.0 | 0.00 | 0.00 | 0.00 | 80 | 1011.5 |
| 20260905000206 | 17 | 221 | 0.0 | 0.0 | 0.00 | 0.00 | 0.00 | 80 | 1011.5 |
| 20260904235705 | 17 | 221 | 0.0 | 0.0 | 0.00 | 0.00 | 0.00 | 79 | 1011.5 |
| 20260904235205 | 17 | 217 | 0.0 | 0.0 | 0.00 | 0.00 | 0.00 | 78 | 1011.5 |
| 20260904234206 | 17 | 200 | 0.0 | 0.0 | 0.00 | 0.00 | 0.00 | 76 | 1011.5 |
| 20260904233706 | 17 | 200 | 0.0 | 0.0 | 0.00 | 0.00 | 0.00 | 76 | 1011.6 |
| 20260904233205 | 18 | 200 | 0.0 | 0.0 | 0.00 | 0.00 | 0.00 | 76 | 1011.6 |
| 20260904232705 | 18 | 200 | 0.0 | 3.2 | 0.00 | 0.00 | 0.00 | 75 | 1011.6 |
| 20260904232206 | 18 | 200 | 0.0 | 3.2 | 0.00 | 0.00 | 0.00 | 75 | 1011.6 |
| 20260904231705 | 18 | 200 | 0.0 | 3.2 | 0.00 | 0.00 | 0.00 | 74 | 1011.7 |
| 20260904231205 | 18 | 200 | 0.0 | 0.0 | 0.00 | 0.00 | 0.00 | 73 | 1011.7 |
| 20260904230705 | 18 | 277 | 0.0 | 0.0 | 0.00 | 0.00 | 0.00 | 73 | 1011.7 |
| 20260904230223 | 18 | 279 | 0.0 | 0.0 | 0.00 | 0.00 | 0.00 | 72 | 1011.7 |
| 20260904225705 | 18 | 279 | 0.0 | 0.0 | 0.00 | 0.00 | 0.00 | 71 | 1011.7 |
| 20260904225205 | 19 | 279 | 0.0 | 0.0 | 0.00 | 0.00 | 0.00 | 71 | 1011.6 |
| 20260904224207 | 19 | 26 | 0.0 | 0.0 | 0.00 | 0.00 | 0.00 | 69 | 1011.4 |
| 20260904222706 | 20 | 5 | 0.0 | 0.0 | 0.00 | 0.00 | 0.00 | 66 | 1011.5 |
| 20260904222205 | 20 | 5 | 0.0 | 0.0 | 0.00 | 0.00 | 0.00 | 66 | 1011.4 |
| 20260904221705 | 21 | 5 | 0.0 | 0.0 | 0.00 | 0.00 | 0.00 | 64 | 1011.3 |
| 20260904221205 | 21 | 5 | 0.0 | 4.8 | 0.00 | 0.00 | 0.00 | 64 | 1011.4 |
| 20260904220705 | 21 | 5 | 0.0 | 9.7 | 0.00 | 0.00 | 0.00 | 63 | 1011.3 |
| 20260904220205 | 21 | 5 | 0.0 | 9.7 | 0.00 | 0.00 | 0.00 | 62 | 1011.4 |
| 20260904215705 | 21 | 170 | 1.6 | 9.7 | 0.00 | 0.00 | 0.00 | 61 | 1011.3 |
| 20260904215205 | 21 | 217 | 3.2 | 12.9 | 0.00 | 0.00 | 0.00 | 61 | 1011.3 |
| 20260904214206 | 21 | 198 | 1.6 | 9.7 | 0.00 | 0.00 | 0.00 | 62 | 1011.3 |
| 20260904213705 | 21 | 208 | 1.6 | 9.7 | 0.00 | 0.00 | 0.00 | 62 | 1011.4 |
| 20260904213205 | 21 | 220 | 1.6 | 14.5 | 0.00 | 0.00 | 0.00 | 62 | 1011.4 |
| 20260904212205 | 21 | 238 | 0.0 | 3.2 | 0.00 | 0.00 | 0.00 | 61 | 1011.5 |
| 20260904211706 | 21 | 200 | 0.0 | 3.2 | 0.00 | 0.00 | 0.00 | 61 | 1011.7 |
| 20260904211206 | 22 | 240 | 0.0 | 3.2 | 0.00 | 0.00 | 0.00 | 60 | 1011.7 |
| 20260904205205 | 23 | 244 | 0.0 | 8.0 | 0.00 | 0.00 | 0.00 | 57 | 1011.9 |
| 20260904204705 | 23 | 227 | 0.0 | 9.7 | 0.00 | 0.00 | 0.00 | 57 | 1012.0 |
| 20260904204205 | 23 | 237 | 1.6 | 9.7 | 0.00 | 0.00 | 0.00 | 56 | 1011.9 |
| 20260904203706 | 23 | 242 | 1.6 | 11.3 | 0.00 | 0.00 | 0.00 | 56 | 1011.9 |
| 20260904203205 | 23 | 226 | 0.0 | 11.3 | 0.00 | 0.00 | 0.00 | 56 | 1012.0 |
| 20260904202206 | 23 | 224 | 0.0 | 6.4 | 0.00 | 0.00 | 0.00 | 56 | 1012.0 |
| 20260904201705 | 23 | 208 | 0.0 | 9.7 | 0.00 | 0.00 | 0.00 | 56 | 1012.0 |
| 20260904201205 | 23 | 219 | 1.6 | 9.7 | 0.00 | 0.00 | 0.00 | 56 | 1012.1 |
| 20260904200705 | 23 | 225 | 1.6 | 9.7 | 0.00 | 0.00 | 0.00 | 55 | 1012.1 |
| 20260904200206 | 23 | 218 | 1.6 | 9.7 | 0.00 | 0.00 | 0.00 | 55 | 1012.1 |
| 20260904195706 | 23 | 209 | 1.6 | 11.3 | 0.00 | 0.00 | 0.00 | 55 | 1012.2 |